スワン彗星

C/2012 E2 ( SWAN )

English version
Home page
Updated on March 18, 2012

---------------------------------------------------------------------

・ プロフィール

発見日 2012年3月4日
発見光度 8〜9等
発見者 Vladimir Bezugly (Dnepropetrovsk, Ukraine)

・ 軌道要素

T 2012 Mar. 15.03141 TT                                 MPC
q   0.0069520            (2000.0)            P               Q
                   Peri.   83.34347     +0.22294727     -0.97167163
                   Node     7.70782     -0.94937135     -0.23468454
e   1.0            Incl.  144.22180     +0.22133358     -0.02788207
From 39 observations 2012 Mar. 9-13.

・ 星図

・ 光度変化

        m1 = 13.0 + 5 logΔ + 10.0 log r

---------------------------------------------------------------------

軌道要素はM.P.E.C. 2012-F02に掲載されたものです。
星図はステラナビゲータ Ver.8 (アストロアーツ) で作成したものです。
光度グラフはComet for Windowsで作成したものです。

---------------------------------------------------------------------

Copyright(C) Seiichi Yoshida (comet@aerith.net). All rights reserved.